(2012 VC26) |
Classification: Aten [NEO] SPK-ID: 3617076 |
[ hide orbit diagram ]
For accurate long-term ephemerides, please instead use our Horizons system.This orbit viewer was implemented using two-body methods, and hence should not be used for determining accurate long-term trajectories (over several years or decades) or planetary encounter circumstances.
[ revert to old Java-based viewer ]
Orbital Elements at Epoch 2458600.5 (2019-Apr-27.0) TDB
Reference: JPL 5 (heliocentric ecliptic J2000)
Element | Value | Uncertainty (1-sigma) | Units |
e | .1949158287404384 | 0.00018513 | |
a | .9516409019037518 | 3.7998e-05 | au |
q | .7661510268458838 | 0.00020673 | au |
i | 1.487568203011803 | 0.002021 | deg |
node | 43.11015691254772 | 0.0026015 | deg |
peri | 119.4279869551452 | 0.0088212 | deg |
M | 250.9304403565217 | 0.1597 | deg |
tp | 2458703.232802519871 (2019-Aug-07.73280252) | 0.15657 | TDB |
period | 339.0846082815834 0.93 | 0.020309 5.56e-05 | d yr |
n | 1.061681926007824 | 6.3588e-05 | deg/d |
Q | 1.13713077696162 | 4.5405e-05 | au |
|
| | Orbit Determination Parameters
Additional Information
|
[ show covariance matrix ]
Physical Parameter Table
Parameter |
Symbol |
Value |
Units |
Sigma |
Reference |
Notes |
absolute magnitude |
H |
28.7 |
|
n/a |
MPO244126 |
|
|
[ show close-approach data ]
|